AirNav   Everest Fuels
 
 923 users online  

9FL6 Land South Heliport
Mulberry, Florida, USA

GOING TO MULBERRY?


FAA INFORMATION EFFECTIVE 21 MAY 2020

Location

FAA Identifier: 9FL6
Lat/Long: 27-51-59.0000N 081-58-10.0000W
27-51.983333N 081-58.166667W
27.8663889,-81.9694444
(estimated)
Elevation: 136 ft. / 41 m (estimated)
From city: 1 mile S of MULBERRY, FL
Time zone: UTC -4 (UTC -5 during Standard Time)
Zip code: 33860

Heliport Operations

Heliport use: Private use. Permission required prior to landing
Activation date: 03/2006
Control tower: no
ARTCC: MIAMI CENTER
FSS: SAINT PETERSBURG FLIGHT SERVICE STATION
Attendance: UNATNDD
Wind indicator: yes
Segmented circle: no

Heliport Communications

WX AWOS-3PT at LAL (8 nm N): 118.025 (863-834-2030)
WX AWOS-3 at BOW (11 nm NE): 123.775 (863-533-9004)
WX AWOS-3 at PCM (13 nm NW): 120.025 (813-764-8259)
WX ASOS at GIF (16 nm NE): 133.675 (863-956-2097)
WX AWOS-3 at X07 (19 nm E): 124.225 (863-678-1334)

Nearby radio navigation aids

VOR radial/distance  VOR name  Freq  Var
LALr161/7.6LAKELAND VORTAC116.0001E
PIEr099/38.0ST PETERSBURG VORTAC116.4005W

Heliport Services

Runway Information

Helipad H1

Dimensions: 90 x 24 ft. / 27 x 7 m
Surface: asphalt
Runway edge lights: non-standard
OWNER DOES NOT DESIRE CHARTING.
Traffic pattern: leftleft

Heliport Ownership and Management from official FAA records

Ownership: Privately-owned
Owner: BULLAND VENTURES
4030 S PIPKIN RD
LAKELAND, FL 33807
Phone 863-607-9500
Manager: ROB HARPER IV
PO BOX 6165
LAKELAND, FL 33807
Phone (863) 937-8867

Heliport Operational Statistics

Aircraft based on the field: 1
Helicopters: 1
    

Additional Remarks

FOR CD CTC TAMPA APCH AT 813-878-2528

Instrument Procedures

There are no published instrument procedures at 9FL6.

Some nearby airports with instrument procedures:

KLAL - Lakeland Linder International Airport (8 nm N)
KBOW - Bartow Executive Airport (11 nm NE)
KPCM - Plant City Airport (13 nm NW)
KGIF - Winter Haven Regional Airport (16 nm NE)
X07 - Lake Wales Municipal Airport (19 nm E)
 
Loc | Ops | Rwys | IFR | FBO | Links
Com | Nav | Svcs | Stats | Notes

Reliance Aviation
AirBoss

 
Area around 9FL6 (Land South Heliport)
 
Road maps at: MapQuest Bing Google
 
Aerial photo
No photo
 
Sectional chart

 
Airport distance calculator
Flying to Land South Heliport? Find the distance to fly.

From to 9FL6

Sunrise and sunset
Times for 06-Jun-2020
 Local
(UTC-4)
 Zulu
(UTC)
Morning civil twilight06:0610:06
Sunrise06:3210:32
Sunset20:2100:21
Evening civil twilight20:4800:48

Current date and time
Zulu (UTC)  06-Jun-2020 13:30:41
Local (UTC-4)  06-Jun-2020 09:30:41
 
METAR
KLAL 
7nm NW 
061325Z 10006KT 7SM RA BKN009 OVC050 25/24 A3002
KBOW 
11nm E 
061250Z 08006KT 7SM -RA FEW010 BKN060 24/24 A2999
KPCM 
13nm NW 
061315Z AUTO 08004KT 7SM -RA OVC007 25/25 A3003 RMK AO2 P0001
KGIF 
17nm NE 
061300Z AUTO 09009KT 10SM -RA SCT009 BKN032 BKN049 25/23 A3001 RMK AO2 P0000 T02500233
KX07 
19nm E 
061315Z AUTO 10007KT 7SM CLR 25/25 A3002 RMK A01
TAF
KLAL 
7nm NW 
061136Z 0612/0712 10006KT P6SM VCSH FEW010 SCT020 BKN050 TEMPO 0612/0616 3SM SHRA BKN012 FM061900 10008KT P6SM VCTS SCT030CB OVC080 FM070100 10006KT P6SM VCSH SCT010 OVC025
NOTAMs
Click for the latest NOTAMs
NOTAMs are issued by the DoD/FAA and will open in a separate window not controlled by AirNav.

 

 
 

Would you like to see your business listed on this page?

 If your business provides an interesting product or service to pilots, flight crews, aircraft, or users of the Land South Heliport, you should consider listing it here.  To start the listing process, click on the button below
 
Add a business
 

Other Pages about Land South Heliport

Update a link
 
Copyright © AirNav, LLC. All rights reserved. Privacy Policy  Contact